Charleston, SC

3:28 PM EST on February 26, 2017 (GMT -0500)
Charleston Air Force Base-International

Weather History for KCHS - June, 2013

Change the Weather History Date:

Monday, June 17, 2013

  Actual Average Record
Temperature  
Mean Temperature 80 °F 79 °F  
Max Temperature 88 °F 89 °F 101 °F (1981)
Min Temperature 71 °F 70 °F 59 °F (1979)
Degree Days  
Heating Degree Days 0 0  
Month to date heating degree days 0 0  
Since 1 June heating degree days 0 0  
Since 1 July heating degree days 1846 1975  
Cooling Degree Days 15 14  
Month to date cooling degree days 253 220  
Year to date cooling degree days 600 582  
Since 1 June cooling degree days 253 220  
Growing Degree Days 30 (Base 50)    
Moisture  
Dew Point 70 °F    
Average Humidity 71    
Maximum Humidity 88    
Minimum Humidity 53    
Precipitation  
Precipitation 0.17 in 0.20 in 3.64 in (1936)
Month to date precipitation 8.13 2.94  
Year to date precipitation 31.57 19.25  
Sea Level Pressure  
Sea Level Pressure 30.05 in    
Wind  
Wind Speed 6 mph (SSW)    
Max Wind Speed 15 mph    
Max Gust Speed 18 mph    
Visibility 10 miles    
Events Rain    
T = Trace of Precipitation, MM = Missing Value Source: NWS Daily Summary

Daily Weather History Graph

Daily Weather History Graph

Search for Another Location

Airport or City:

Trip Planner

Search our weather history database for the weather conditions in past years. The results will help you decide how hot, cold, wet, or windy it might be!

Date:

Astronomy

Jun. 17, 2013 Rise Set
Actual Time 6:11 AM EDT 8:30 PM EDT
Civil Twilight 5:42 AM EDT 8:59 PM EDT
Nautical Twilight 5:07 AM EDT 9:34 PM EDT
Astronomical Twilight 4:29 AM EDT 10:12 PM EDT
Moon 2:23 PM EDT (6/17) 1:29 AM EDT (6/17)
Length of Visible Light 15h 16m
Length of Day
14h 19m
First Quarter, 60% of the Moon is Illuminated
Jun 17
First Quarter
Jun 23
Full
Jun 30
Last Quarter
Jul 8
New
Jul 15
First Quarter

Hourly Weather History & Observations

Time (EDT) Temp. Heat Index Dew Point Humidity Pressure Visibility Wind Dir Wind Speed Gust Speed Precip Events Conditions
12:56 AM 73.0 °F - 66.0 °F 79% 30.10 in 10.0 mi SSW 3.5 mph - N/A   Clear
1:56 AM 72.0 °F - 66.0 °F 81% 30.09 in 10.0 mi South 3.5 mph - N/A   Clear
2:56 AM 71.1 °F - 66.0 °F 84% 30.08 in 10.0 mi SSW 4.6 mph - N/A   Clear
3:56 AM 72.0 °F - 66.9 °F 84% 30.07 in 10.0 mi South 3.5 mph - N/A   Clear
4:56 AM 72.0 °F - 66.9 °F 84% 30.08 in 10.0 mi Calm Calm - N/A   Clear
5:56 AM 72.0 °F - 66.9 °F 84% 30.07 in 10.0 mi Calm Calm - N/A   Partly Cloudy
6:56 AM 73.0 °F - 68.0 °F 84% 30.07 in 10.0 mi Calm Calm - N/A   Partly Cloudy
7:56 AM 77.0 °F - 70.0 °F 79% 30.08 in 10.0 mi WSW 4.6 mph - N/A   Scattered Clouds
8:56 AM 80.1 °F 83.2 °F 70.0 °F 71% 30.09 in 10.0 mi WSW 5.8 mph - N/A   Scattered Clouds
9:56 AM 82.0 °F 86.3 °F 71.1 °F 69% 30.07 in 10.0 mi SW 9.2 mph - N/A   Scattered Clouds
10:56 AM 84.9 °F 89.4 °F 70.0 °F 61% 30.06 in 10.0 mi Variable 6.9 mph - N/A   Scattered Clouds
11:56 AM 86.0 °F 90.1 °F 69.1 °F 57% 30.06 in 10.0 mi South 6.9 mph - N/A   Mostly Cloudy
12:56 PM 87.1 °F 90.6 °F 68.0 °F 53% 30.05 in 10.0 mi SW 8.1 mph - N/A   Mostly Cloudy
1:56 PM 86.0 °F 91.5 °F 71.1 °F 61% 30.05 in 10.0 mi South 9.2 mph - N/A   Mostly Cloudy
2:56 PM 87.1 °F 92.8 °F 71.1 °F 59% 30.03 in 10.0 mi SSW 5.8 mph - 0.00 in   Scattered Clouds
3:56 PM 86.0 °F 92.2 °F 72.0 °F 63% 30.01 in 10.0 mi SE 8.1 mph - N/A   Mostly Cloudy
4:56 PM 86.0 °F 91.5 °F 71.1 °F 61% 29.99 in 10.0 mi South 11.5 mph - N/A   Scattered Clouds
5:56 PM 82.9 °F 87.0 °F 70.0 °F 65% 30.00 in 10.0 mi South 13.8 mph - N/A   Mostly Cloudy
6:56 PM 80.1 °F 84.2 °F 73.0 °F 79% 30.02 in 10.0 mi SSW 8.1 mph - 0.00 in Rain Light Rain
7:56 PM 77.0 °F - 72.0 °F 84% 30.01 in 10.0 mi SSW 9.2 mph - 0.09 in Rain Light Rain
8:56 PM 77.0 °F - 73.0 °F 88% 30.01 in 10.0 mi Calm Calm - 0.02 in Rain Light Rain
9:56 PM 78.1 °F - 73.9 °F 87% 30.02 in 10.0 mi SSW 8.1 mph - 0.00 in   Mostly Cloudy
10:28 PM 78.8 °F - 73.4 °F 83% 30.04 in 10.0 mi SSW 9.2 mph - 0.00 in Rain Light Rain
10:56 PM 77.0 °F - 73.9 °F 90% 30.03 in 8.0 mi South 11.5 mph - 0.03 in Rain Light Rain
11:56 PM 75.9 °F - 72.0 °F 87% 30.02 in 10.0 mi South 10.4 mph - 0.03 in   Overcast